contact:dominique.lefevre@mio.osupytheas.fr, maurice.libes@osupytheas.fr, didier.mallarino@osupytheas.fr
Project:EMSO http://www.emso-fr.org/EMSO-France
Depth: 2436.0 m
Title:EMSO Ligure Ouest : Data MII capteur AQUADOPP
Date,Latitude,Longitude,X_East,Y_North,Z_Up,Amplitude_X,Amplitude_Y,Amplitude_Z,Batterie,SoundSpeed,Heading,Pitch,Roll,Pressure,TIS,Speed,Direction
, degrees North, degrees East, m.s-1, m.s-1,m.s-1, 1, 1, 1, Volt, m.s-1, degree, degree, degree, dbar, degree_C, m.s-1, degree
2023-05-19T00:04:03,42.805,6.029,0.043,0.003,-0.013,103.0,102.0,102.0,13.3,1505.2,327.8,-0.8,1.8,2471.388,13.28,0.043,86.0
2023-05-19T00:07:03,42.805,6.029,0.04,-0.013,-0.016,101.0,103.0,101.0,13.4,1505.2,338.6,-0.8,1.8,2471.375,13.28,0.042,108.0
2023-05-19T00:10:03,42.805,6.029,0.042,-0.003,-0.013,102.0,102.0,101.0,13.4,1505.2,321.7,-0.8,1.8,2471.365,13.28,0.042,94.1
2023-05-19T00:13:03,42.805,6.029,0.039,0.012,-0.021,102.0,103.0,99.0,13.4,1505.2,318.7,-0.7,1.8,2471.346,13.28,0.04,72.9
2023-05-19T00:16:03,42.805,6.029,0.045,-0.013,-0.025,103.0,101.0,101.0,13.3,1505.2,325.2,-0.8,1.8,2471.352,13.29,0.046,106.1
2023-05-19T00:19:03,42.805,6.029,0.032,-0.023,-0.003,102.0,102.0,102.0,13.3,1505.2,335.1,-0.8,1.8,2471.333,13.29,0.039,125.7
2023-05-19T00:22:03,42.805,6.029,0.024,-0.007,-0.038,102.0,102.0,101.0,13.4,1505.2,333.0,-0.7,1.8,2471.339,13.29,0.025,106.3
2023-05-19T00:25:03,42.805,6.029,0.03,0.008,-0.013,102.0,102.0,102.0,13.4,1505.2,344.5,-0.8,1.8,2471.322,13.29,0.031,75.1
2023-05-19T00:28:03,42.805,6.029,0.029,-0.022,-0.034,102.0,102.0,101.0,13.3,1505.2,343.0,-0.7,1.8,2471.308,13.29,0.036,127.2
2023-05-19T00:31:03,42.805,6.029,0.023,0.01,0.008,103.0,103.0,100.0,13.3,1505.2,339.4,-0.7,1.8,2471.308,13.29,0.025,66.5
2023-05-19T00:34:03,42.805,6.029,0.042,-0.027,0.0,102.0,102.0,101.0,13.4,1505.2,346.9,-0.7,1.8,2471.317,13.29,0.049,122.7
2023-05-19T00:37:03,42.805,6.029,0.053,0.0,-0.022,103.0,102.0,101.0,13.4,1505.2,331.3,-0.8,1.8,2471.345,13.29,0.053,90.0
2023-05-19T00:40:03,42.805,6.029,0.031,-0.006,0.007,103.0,100.0,102.0,13.4,1505.2,343.4,-0.8,1.8,2471.298,13.29,0.031,101.0
2023-05-19T00:43:03,42.805,6.029,0.041,-0.002,-0.003,102.0,102.0,101.0,13.4,1505.2,334.9,-0.8,1.8,2471.314,13.29,0.041,92.8
2023-05-19T00:46:03,42.805,6.029,0.021,-0.012,-0.025,103.0,101.0,101.0,13.4,1505.2,335.0,-0.7,1.8,2471.296,13.29,0.024,119.7
2023-05-19T00:49:03,42.805,6.029,0.041,-0.001,-0.017,103.0,102.0,100.0,13.4,1505.2,317.5,-0.8,1.8,2471.27,13.29,0.041,91.4
2023-05-19T00:52:03,42.805,6.029,0.05,-0.013,-0.021,102.0,102.0,101.0,13.4,1505.2,326.3,-0.8,1.8,2471.331,13.29,0.051,104.6
2023-05-19T00:55:03,42.805,6.029,0.02,0.0,-0.015,102.0,102.0,102.0,13.4,1505.2,324.9,-0.8,1.8,2471.31,13.29,0.02,90.0
2023-05-19T00:58:03,42.805,6.029,0.03,0.01,-0.008,101.0,101.0,102.0,13.4,1505.2,325.7,-0.8,1.8,2471.282,13.29,0.031,71.6
2023-05-19T01:04:03,42.805,6.029,0.066,-0.03,0.0,104.0,104.0,102.0,13.4,1505.2,338.2,-0.8,1.8,2471.372,13.28,0.072,114.4
2023-05-19T01:07:03,42.805,6.029,0.02,-0.022,-0.024,103.0,103.0,100.0,13.3,1505.2,345.4,-0.8,1.8,2471.313,13.28,0.029,137.7
2023-05-19T01:10:03,42.805,6.029,0.017,0.003,-0.045,102.0,101.0,100.0,13.3,1505.2,320.5,-0.8,1.8,2471.346,13.28,0.017,80.0
2023-05-19T01:13:03,42.805,6.029,0.042,-0.013,-0.014,103.0,103.0,100.0,13.4,1505.2,336.5,-0.7,1.9,2471.353,13.28,0.043,107.2
2023-05-19T01:16:03,42.805,6.029,0.027,0.011,-0.009,101.0,102.0,102.0,13.4,1505.2,339.3,-0.7,1.8,2471.279,13.28,0.029,67.8
2023-05-19T01:19:03,42.805,6.029,0.028,-0.006,-0.019,102.0,101.0,101.0,13.4,1505.2,326.6,-0.7,1.8,2471.343,13.29,0.028,102.1
2023-05-19T01:22:03,42.805,6.029,0.042,-0.012,-0.014,101.0,102.0,102.0,13.4,1505.2,329.3,-0.8,1.9,2471.34,13.29,0.043,105.9
2023-05-19T01:25:03,42.805,6.029,0.029,-0.008,-0.025,100.0,104.0,102.0,13.4,1505.2,332.4,-0.7,1.8,2471.299,13.29,0.03,105.4
2023-05-19T01:28:03,42.805,6.029,0.036,-0.026,-0.021,101.0,103.0,102.0,13.3,1505.2,341.2,-0.8,1.8,2471.322,13.29,0.044,125.8
2023-05-19T01:31:03,42.805,6.029,0.044,-0.016,-0.002,102.0,101.0,101.0,13.3,1505.2,326.9,-0.8,1.8,2471.307,13.29,0.046,110.0
2023-05-19T01:34:03,42.805,6.029,0.065,-0.012,-0.012,102.0,101.0,102.0,13.3,1505.2,330.3,-0.8,1.8,2471.287,13.29,0.066,100.5
2023-05-19T01:37:03,42.805,6.029,0.051,-0.007,0.007,101.0,103.0,100.0,13.4,1505.2,343.3,-0.7,1.8,2471.317,13.29,0.051,97.8
2023-05-19T01:40:03,42.805,6.029,0.022,0.0,-0.045,103.0,102.0,101.0,13.4,1505.2,323.6,-0.7,1.8,2471.316,13.29,0.022,90.0
2023-05-19T01:43:03,42.805,6.029,0.025,-0.022,-0.044,102.0,101.0,101.0,13.3,1505.2,324.4,-0.7,1.8,2471.287,13.29,0.033,131.3
2023-05-19T01:46:03,42.805,6.029,0.042,-0.017,-0.019,101.0,103.0,101.0,13.3,1505.2,326.6,-0.7,1.8,2471.282,13.29,0.045,112.0
2023-05-19T01:49:03,42.805,6.029,0.047,-0.007,-0.002,102.0,103.0,101.0,13.4,1505.2,340.8,-0.8,1.8,2471.295,13.29,0.047,98.5
2023-05-19T01:52:03,42.805,6.029,0.031,0.002,-0.025,103.0,101.0,100.0,13.3,1505.2,321.0,-0.7,1.8,2471.299,13.29,0.031,86.3
2023-05-19T01:55:03,42.805,6.029,0.063,-0.021,0.0,102.0,103.0,101.0,13.3,1505.2,333.4,-0.8,1.8,2471.29,13.29,0.066,108.4
2023-05-19T01:58:03,42.805,6.029,0.036,-0.015,-0.009,102.0,101.0,101.0,13.4,1505.2,337.9,-0.7,1.8,2471.302,13.29,0.039,112.6
2023-05-19T02:04:03,42.805,6.029,0.058,-0.012,-0.014,102.0,101.0,101.0,13.4,1505.2,325.0,-0.8,1.8,2471.369,13.28,0.059,101.7
2023-05-19T02:07:03,42.805,6.029,0.032,-0.03,-0.022,102.0,102.0,101.0,13.3,1505.2,322.4,-0.8,1.8,2471.311,13.28,0.043,133.1
2023-05-19T02:10:03,42.805,6.029,0.035,-0.008,-0.046,101.0,102.0,101.0,13.3,1505.2,333.0,-0.8,1.8,2471.313,13.28,0.035,102.9
2023-05-19T02:13:03,42.805,6.029,0.034,-0.02,-0.014,102.0,102.0,100.0,13.4,1505.2,335.2,-0.8,1.8,2471.311,13.28,0.039,120.5
2023-05-19T02:16:03,42.805,6.029,0.046,0.0,-0.021,103.0,101.0,100.0,13.4,1505.2,340.8,-0.8,1.8,2471.341,13.28,0.046,90.0
2023-05-19T02:19:03,42.805,6.029,0.043,-0.029,-0.027,102.0,102.0,101.0,13.4,1505.2,340.4,-0.8,1.8,2471.345,13.28,0.051,124.0
2023-05-19T02:22:03,42.805,6.029,0.026,-0.008,-0.004,102.0,102.0,100.0,13.3,1505.2,322.2,-0.8,1.8,2471.283,13.29,0.027,107.1
2023-05-19T02:25:03,42.805,6.029,0.06,-0.01,-0.004,102.0,103.0,101.0,13.4,1505.2,332.9,-0.8,1.8,2471.308,13.29,0.06,99.5
2023-05-19T02:28:03,42.805,6.029,0.04,-0.034,-0.045,102.0,102.0,101.0,13.4,1505.2,332.4,-0.8,1.8,2471.294,13.29,0.052,130.4
2023-05-19T02:31:03,42.805,6.029,0.038,-0.003,0.009,103.0,102.0,100.0,13.3,1505.2,341.5,-0.7,1.8,2471.298,13.29,0.038,94.5
2023-05-19T02:34:03,42.805,6.029,0.061,-0.006,0.014,103.0,102.0,101.0,13.3,1505.2,335.9,-0.8,1.8,2471.308,13.29,0.061,95.6
2023-05-19T02:37:03,42.805,6.029,0.054,-0.042,-0.02,102.0,102.0,101.0,13.4,1505.2,342.3,-0.8,1.8,2471.317,13.29,0.068,127.9
2023-05-19T02:40:03,42.805,6.029,0.05,-0.022,-0.05,102.0,103.0,100.0,13.4,1505.2,321.2,-0.8,1.8,2471.289,13.29,0.054,113.7
2023-05-19T02:43:03,42.805,6.029,0.039,-0.039,-0.012,102.0,103.0,102.0,13.3,1505.2,338.6,-0.8,1.8,2471.292,13.29,0.055,135.0
2023-05-19T02:46:03,42.805,6.029,0.051,-0.008,-0.004,103.0,102.0,101.0,13.3,1505.2,346.2,-0.7,1.8,2471.298,13.29,0.051,98.9
2023-05-19T02:49:03,42.805,6.029,0.037,-0.023,-0.002,103.0,102.0,100.0,13.4,1505.2,335.1,-0.8,1.9,2471.312,13.29,0.043,121.9
2023-05-19T02:52:03,42.805,6.029,0.033,0.009,-0.044,102.0,100.0,102.0,13.3,1505.2,324.8,-0.8,1.8,2471.256,13.29,0.034,74.7
2023-05-19T02:55:03,42.805,6.029,0.049,-0.003,0.001,102.0,102.0,101.0,13.3,1505.2,324.9,-0.8,1.8,2471.315,13.29,0.049,93.5
2023-05-19T02:58:03,42.805,6.029,0.056,-0.032,-0.002,102.0,102.0,100.0,13.4,1505.2,339.3,-0.8,1.8,2471.33,13.29,0.064,119.7
2023-05-19T03:04:03,42.805,6.029,0.056,-0.01,-0.035,101.0,101.0,101.0,13.4,1505.2,330.9,-0.7,1.9,2471.365,13.28,0.056,100.1
2023-05-19T03:07:03,42.805,6.029,0.049,-0.032,-0.002,101.0,103.0,100.0,13.4,1505.2,345.7,-0.8,1.8,2471.345,13.28,0.058,123.2
2023-05-19T03:10:03,42.805,6.029,0.044,0.003,-0.012,101.0,103.0,101.0,13.3,1505.2,332.9,-0.8,1.8,2471.35,13.28,0.044,86.1
2023-05-19T03:13:03,42.805,6.029,0.037,0.02,0.011,101.0,100.0,101.0,13.4,1505.2,341.2,-0.8,1.8,2471.36,13.28,0.042,61.6
2023-05-19T03:16:03,42.805,6.029,0.033,-0.028,-0.044,103.0,101.0,101.0,13.3,1505.2,329.0,-0.8,1.8,2471.335,13.28,0.043,130.3
2023-05-19T03:19:03,42.805,6.029,0.034,-0.022,-0.017,102.0,102.0,101.0,13.4,1505.2,343.4,-0.7,1.8,2471.34,13.29,0.04,122.9
2023-05-19T03:22:03,42.805,6.029,0.04,-0.015,-0.018,100.0,101.0,102.0,13.4,1505.2,329.8,-0.8,1.8,2471.299,13.29,0.042,110.6
2023-05-19T03:25:03,42.805,6.029,0.039,-0.012,-0.029,102.0,102.0,101.0,13.4,1505.2,329.3,-0.8,1.8,2471.33,13.28,0.04,107.1
2023-05-19T03:28:03,42.805,6.029,0.043,-0.025,-0.055,102.0,101.0,101.0,13.3,1505.2,339.4,-0.8,1.8,2471.326,13.29,0.049,120.2
2023-05-19T03:31:03,42.805,6.029,0.045,-0.004,-0.022,102.0,101.0,102.0,13.4,1505.2,328.7,-0.8,1.8,2471.311,13.29,0.045,95.1
2023-05-19T03:34:03,42.805,6.029,0.059,-0.003,0.006,101.0,101.0,101.0,13.4,1505.2,322.9,-0.8,1.8,2471.36,13.29,0.059,92.9
2023-05-19T03:37:03,42.805,6.029,0.044,-0.016,0.015,102.0,102.0,101.0,13.4,1505.2,336.9,-0.8,1.8,2471.313,13.29,0.046,110.0
2023-05-19T03:40:03,42.805,6.029,0.043,-0.029,-0.042,103.0,102.0,99.0,13.3,1505.2,340.8,-0.8,1.8,2471.345,13.29,0.051,124.0
2023-05-19T03:43:03,42.805,6.029,0.034,0.004,-0.019,101.0,101.0,101.0,13.4,1505.2,318.1,-0.8,1.8,2471.313,13.29,0.034,83.3
2023-05-19T03:46:03,42.805,6.029,0.019,0.019,-0.012,101.0,102.0,101.0,13.3,1505.2,337.0,-0.7,1.8,2471.373,13.29,0.026,45.0
2023-05-19T03:49:03,42.805,6.029,0.051,-0.019,-0.029,103.0,102.0,100.0,13.4,1505.2,337.3,-0.8,1.8,2471.322,13.29,0.054,110.4
2023-05-19T03:52:03,42.805,6.029,0.053,-0.025,0.009,102.0,101.0,101.0,13.4,1505.2,345.4,-0.8,1.8,2471.357,13.29,0.058,115.3
2023-05-19T03:55:03,42.805,6.029,0.046,0.0,-0.049,101.0,102.0,101.0,13.3,1505.2,328.4,-0.8,1.8,2471.331,13.29,0.046,90.0
2023-05-19T03:58:03,42.805,6.029,0.043,-0.02,-0.028,100.0,102.0,101.0,13.4,1505.2,332.9,-0.8,1.8,2471.383,13.29,0.047,114.9
2023-05-19T04:04:03,42.805,6.029,0.027,-0.001,-0.01,102.0,100.0,101.0,13.4,1505.2,329.6,-0.7,1.8,2471.362,13.28,0.027,92.1
2023-05-19T04:07:03,42.805,6.029,0.036,-0.001,0.003,102.0,101.0,101.0,13.3,1505.2,333.4,-0.8,1.8,2471.408,13.28,0.036,91.6
2023-05-19T04:10:03,42.805,6.029,0.059,-0.029,-0.022,102.0,101.0,100.0,13.4,1505.2,347.2,-0.8,1.8,2471.415,13.28,0.065,116.2
2023-05-19T04:13:03,42.805,6.029,0.016,-0.003,-0.027,102.0,102.0,100.0,13.4,1505.2,321.8,-0.8,1.8,2471.386,13.28,0.016,100.6
2023-05-19T04:16:03,42.805,6.029,0.044,-0.033,-0.02,102.0,102.0,101.0,13.3,1505.2,338.6,-0.7,1.8,2471.409,13.28,0.055,126.9
2023-05-19T04:19:03,42.805,6.029,0.036,-0.001,0.004,102.0,101.0,101.0,13.4,1505.2,319.0,-0.8,1.8,2471.401,13.29,0.036,91.6
2023-05-19T04:22:03,42.805,6.029,0.045,-0.024,0.002,99.0,101.0,102.0,13.4,1505.2,335.4,-0.8,1.9,2471.365,13.29,0.051,118.1
2023-05-19T04:25:03,42.805,6.029,0.037,0.001,-0.005,101.0,101.0,101.0,13.4,1505.2,322.3,-0.7,1.8,2471.381,13.29,0.037,88.5
2023-05-19T04:28:03,42.805,6.029,0.036,-0.012,-0.009,102.0,103.0,101.0,13.3,1505.2,344.4,-0.8,1.8,2471.386,13.29,0.037,108.4
2023-05-19T04:31:03,42.805,6.029,0.011,-0.021,-0.011,101.0,102.0,101.0,13.4,1505.2,323.6,-0.8,1.8,2471.423,13.29,0.023,152.4
2023-05-19T04:34:03,42.805,6.029,0.043,-0.031,-0.02,102.0,103.0,101.0,13.4,1505.2,342.8,-0.8,1.8,2471.369,13.29,0.053,125.8
2023-05-19T04:37:03,42.805,6.029,0.035,-0.016,-0.027,102.0,101.0,102.0,13.4,1505.2,340.1,-0.8,1.9,2471.415,13.29,0.038,114.6
2023-05-19T04:40:03,42.805,6.029,0.051,-0.033,-0.02,102.0,102.0,102.0,13.3,1505.2,336.0,-0.8,1.8,2471.402,13.29,0.06,122.9
2023-05-19T04:43:03,42.805,6.029,0.047,-0.007,-0.019,102.0,102.0,101.0,13.4,1505.2,320.6,-0.8,1.8,2471.401,13.29,0.047,98.5
2023-05-19T04:46:03,42.805,6.029,0.07,0.007,0.009,102.0,101.0,101.0,13.4,1505.2,324.3,-0.8,1.8,2471.412,13.29,0.07,84.3
2023-05-19T04:49:03,42.805,6.029,0.029,-0.014,-0.014,103.0,101.0,101.0,13.3,1505.2,326.3,-0.8,1.8,2471.394,13.29,0.032,115.8
2023-05-19T04:52:03,42.805,6.029,0.063,-0.018,-0.013,102.0,101.0,101.0,13.4,1505.2,337.1,-0.8,1.8,2471.417,13.29,0.065,105.9
2023-05-19T04:55:03,42.805,6.029,0.056,0.01,-0.002,101.0,101.0,100.0,13.4,1505.2,325.3,-0.7,1.8,2471.395,13.29,0.056,79.9
2023-05-19T04:58:03,42.805,6.029,0.033,-0.03,-0.031,102.0,102.0,101.0,13.3,1505.2,336.5,-0.8,1.8,2471.382,13.29,0.044,132.3
2023-05-19T05:04:03,42.805,6.029,0.058,-0.007,-0.002,101.0,101.0,101.0,13.4,1505.2,327.1,-0.8,1.8,2471.431,13.28,0.058,96.9
2023-05-19T05:07:03,42.805,6.029,0.022,-0.026,-0.019,101.0,102.0,101.0,13.4,1505.2,347.8,-0.8,1.8,2471.485,13.28,0.034,139.8
2023-05-19T05:10:03,42.805,6.029,0.046,0.013,-0.002,101.0,100.0,101.0,13.4,1505.2,320.5,-0.8,1.8,2471.479,13.28,0.047,74.2
2023-05-19T05:13:03,42.805,6.029,0.041,-0.02,-0.019,101.0,101.0,101.0,13.3,1505.2,340.4,-0.8,1.8,2471.486,13.28,0.045,116.0
2023-05-19T05:16:03,42.805,6.029,0.033,-0.001,-0.007,102.0,101.0,101.0,13.4,1505.2,324.9,-0.8,1.8,2471.484,13.28,0.033,91.7
2023-05-19T05:19:03,42.805,6.029,0.029,-0.011,-0.015,102.0,102.0,100.0,13.3,1505.2,345.9,-0.7,1.8,2471.455,13.28,0.031,110.8
2023-05-19T05:22:03,42.805,6.029,0.037,-0.006,-0.024,101.0,102.0,101.0,13.4,1505.2,333.0,-0.7,1.8,2471.421,13.29,0.037,99.2
2023-05-19T05:25:03,42.805,6.029,0.042,0.019,-0.007,102.0,102.0,101.0,13.3,1505.2,318.6,-0.7,1.8,2471.483,13.29,0.046,65.7
2023-05-19T05:28:03,42.805,6.029,0.059,-0.031,-0.031,101.0,101.0,101.0,13.4,1505.2,328.2,-0.7,1.8,2471.494,13.29,0.066,117.7
2023-05-19T05:31:03,42.805,6.029,0.035,-0.011,-0.01,101.0,102.0,101.0,13.4,1505.2,343.2,-0.8,1.8,2471.468,13.29,0.036,107.4
2023-05-19T05:34:03,42.805,6.029,0.053,-0.007,0.008,103.0,102.0,100.0,13.4,1505.2,328.8,-0.7,1.8,2471.431,13.29,0.053,97.5
2023-05-19T05:37:03,42.805,6.029,0.033,0.004,-0.003,102.0,102.0,102.0,13.4,1505.2,332.4,-0.8,1.9,2471.452,13.29,0.033,83.1
2023-05-19T05:40:03,42.805,6.029,0.049,-0.003,-0.016,102.0,102.0,101.0,13.4,1505.2,318.4,-0.8,1.8,2471.431,13.29,0.049,93.5
2023-05-19T05:43:03,42.805,6.029,0.064,-0.027,-0.031,102.0,103.0,101.0,13.4,1505.2,323.7,-0.8,1.9,2471.439,13.29,0.069,112.9
2023-05-19T05:46:03,42.805,6.029,0.043,-0.036,-0.01,101.0,102.0,101.0,13.4,1505.2,344.8,-0.8,1.9,2471.448,13.29,0.056,129.9
2023-05-19T05:49:03,42.805,6.029,0.024,-0.016,-0.018,102.0,102.0,102.0,13.3,1505.2,317.4,-0.8,1.8,2471.457,13.29,0.028,123.7
2023-05-19T05:52:03,42.805,6.029,0.041,-0.013,0.0,102.0,104.0,102.0,13.4,1505.2,327.8,-0.8,1.8,2471.478,13.29,0.043,107.6
2023-05-19T05:55:03,42.805,6.029,0.053,-0.021,-0.019,102.0,102.0,101.0,13.3,1505.2,337.2,-0.7,1.8,2471.44,13.29,0.057,111.6
2023-05-19T05:58:03,42.805,6.029,0.021,0.001,-0.001,102.0,102.0,101.0,13.3,1505.2,339.1,-0.8,1.8,2471.464,13.29,0.021,87.3
2023-05-19T06:01:03,42.805,6.029,0.04,0.002,-0.013,102.0,103.0,101.0,13.4,1505.2,327.8,-0.8,1.8,2471.486,13.29,0.04,87.1
2023-05-19T06:04:03,42.805,6.029,0.065,-0.024,-0.026,102.0,103.0,100.0,13.4,1505.2,333.4,-0.7,1.8,2471.435,13.29,0.069,110.3
2023-05-19T06:07:03,42.805,6.029,0.061,-0.008,-0.024,102.0,102.0,101.0,13.4,1505.2,324.1,-0.7,1.8,2471.446,13.29,0.061,97.5
2023-05-19T06:10:03,42.805,6.029,0.056,-0.005,-0.006,102.0,102.0,101.0,13.3,1505.2,328.3,-0.7,1.8,2471.441,13.29,0.056,95.1
2023-05-19T06:13:03,42.805,6.029,0.057,-0.019,-0.036,101.0,102.0,101.0,13.3,1505.2,332.9,-0.7,1.8,2471.486,13.29,0.06,108.4
2023-05-19T06:16:03,42.805,6.029,0.053,0.0,-0.004,102.0,101.0,101.0,13.3,1505.2,319.7,-0.8,1.8,2471.459,13.29,0.053,90.0
2023-05-19T06:19:03,42.805,6.029,0.034,-0.011,0.007,101.0,103.0,101.0,13.4,1505.2,347.8,-0.8,1.8,2471.485,13.29,0.035,107.9
2023-05-19T06:22:03,42.805,6.029,0.053,0.013,-0.013,103.0,101.0,101.0,13.4,1505.2,319.9,-0.7,1.8,2471.45,13.29,0.054,76.2
2023-05-19T06:25:03,42.805,6.029,0.03,0.002,-0.003,102.0,102.0,101.0,13.4,1505.2,324.1,-0.8,1.8,2471.471,13.29,0.03,86.2
2023-05-19T06:28:03,42.805,6.029,0.057,-0.029,-0.021,102.0,102.0,101.0,13.4,1505.2,335.6,-0.7,1.8,2471.44,13.29,0.063,117.0
2023-05-19T06:31:03,42.805,6.029,0.034,0.0,0.002,103.0,101.0,101.0,13.4,1505.2,332.9,-0.7,1.8,2471.445,13.29,0.034,90.0
2023-05-19T06:34:03,42.805,6.029,0.033,-0.029,-0.014,102.0,102.0,101.0,13.4,1505.2,347.0,-0.7,1.8,2471.477,13.29,0.043,131.3
2023-05-19T06:37:03,42.805,6.029,0.033,-0.004,0.002,103.0,101.0,101.0,13.4,1505.2,322.4,-0.8,1.8,2471.455,13.29,0.033,96.9
2023-05-19T06:40:03,42.805,6.029,0.062,-0.021,0.003,101.0,101.0,102.0,13.4,1505.2,324.3,-0.8,1.8,2471.452,13.29,0.065,108.7
2023-05-19T06:43:03,42.805,6.029,0.037,0.0,0.037,100.0,103.0,101.0,13.3,1505.2,339.7,-0.7,1.8,2471.492,13.29,0.037,90.0
2023-05-19T06:46:03,42.805,6.029,0.054,-0.011,-0.029,102.0,102.0,101.0,13.3,1505.2,332.1,-0.8,1.8,2471.493,13.29,0.055,101.5
2023-05-19T06:49:03,42.805,6.029,0.05,-0.038,-0.009,102.0,103.0,100.0,13.4,1505.2,346.5,-0.8,1.8,2471.43,13.29,0.062,127.2
2023-05-19T06:52:03,42.805,6.029,0.041,-0.013,-0.023,101.0,102.0,102.0,13.3,1505.2,325.0,-0.8,1.8,2471.45,13.29,0.043,107.6
2023-05-19T06:55:03,42.805,6.029,0.062,0.006,0.007,103.0,102.0,102.0,13.3,1505.2,327.8,-0.7,1.8,2471.414,13.29,0.062,84.5
2023-05-19T06:58:03,42.805,6.029,0.055,-0.017,-0.005,102.0,103.0,100.0,13.4,1505.2,320.8,-0.8,1.8,2471.506,13.29,0.057,107.2
2023-05-19T07:04:03,42.805,6.029,0.043,0.003,0.004,102.0,101.0,102.0,13.4,1505.2,321.2,-0.8,1.8,2471.497,13.28,0.043,86.0
2023-05-19T07:07:03,42.805,6.029,0.062,-0.029,-0.04,101.0,103.0,101.0,13.4,1505.2,332.9,-0.8,1.8,2471.495,13.28,0.068,115.1
2023-05-19T07:10:03,42.805,6.029,0.039,-0.012,-0.002,102.0,102.0,101.0,13.4,1505.2,330.5,-0.8,1.8,2471.479,13.28,0.04,107.1
2023-05-19T07:13:03,42.805,6.029,0.033,-0.01,-0.033,102.0,103.0,101.0,13.4,1505.2,319.3,-0.8,1.8,2471.474,13.28,0.034,106.9
2023-05-19T07:16:03,42.805,6.029,0.072,-0.045,-0.035,103.0,102.0,101.0,13.3,1505.2,335.9,-0.7,1.8,2471.487,13.28,0.084,122.0
2023-05-19T07:19:03,42.805,6.029,0.054,-0.037,-0.002,102.0,101.0,101.0,13.4,1505.2,343.4,-0.7,1.8,2471.496,13.28,0.065,124.4
2023-05-19T07:22:03,42.805,6.029,0.034,-0.006,-0.037,103.0,101.0,102.0,13.3,1505.2,327.5,-0.8,1.8,2471.451,13.29,0.034,100.0
2023-05-19T07:25:03,42.805,6.029,0.032,0.023,0.003,101.0,102.0,101.0,13.3,1505.2,329.9,-0.8,1.8,2471.452,13.29,0.039,54.3
2023-05-19T07:28:03,42.805,6.029,0.027,-0.022,-0.02,101.0,102.0,101.0,13.4,1505.2,347.5,-0.7,1.8,2471.444,13.29,0.034,129.2
2023-05-19T07:31:03,42.805,6.029,0.038,-0.008,-0.045,103.0,102.0,101.0,13.4,1505.2,323.3,-0.8,1.8,2471.44,13.29,0.038,101.9
2023-05-19T07:34:03,42.805,6.029,0.04,-0.006,0.003,103.0,102.0,102.0,13.4,1505.2,332.5,-0.7,1.8,2471.454,13.29,0.04,98.5
2023-05-19T07:37:03,42.805,6.029,0.028,-0.02,-0.026,103.0,103.0,101.0,13.4,1505.2,336.0,-0.8,1.8,2471.479,13.29,0.034,125.5
2023-05-19T07:40:03,42.805,6.029,0.028,-0.016,-0.021,102.0,103.0,102.0,13.4,1505.2,329.4,-0.8,1.8,2471.434,13.29,0.032,119.7
2023-05-19T07:43:03,42.805,6.029,0.035,-0.009,0.003,102.0,103.0,101.0,13.4,1505.2,336.5,-0.7,1.8,2471.455,13.29,0.036,104.4
2023-05-19T07:46:03,42.805,6.029,0.055,-0.015,-0.004,101.0,103.0,101.0,13.4,1505.2,344.8,-0.8,1.8,2471.437,13.29,0.057,105.3
2023-05-19T07:49:03,42.805,6.029,0.018,0.0,-0.026,101.0,102.0,101.0,13.4,1505.2,325.3,-0.8,1.8,2471.46,13.29,0.018,90.0
2023-05-19T07:52:03,42.805,6.029,0.032,-0.015,-0.025,102.0,103.0,100.0,13.3,1505.2,330.3,-0.8,1.8,2471.428,13.29,0.035,115.1
2023-05-19T07:55:03,42.805,6.029,0.031,-0.009,-0.028,102.0,103.0,101.0,13.4,1505.2,340.9,-0.7,1.8,2471.442,13.29,0.032,106.2
2023-05-19T07:58:03,42.805,6.029,0.035,-0.025,-0.039,102.0,103.0,101.0,13.4,1505.2,332.4,-0.8,1.8,2471.435,13.29,0.043,125.5
2023-05-19T08:04:03,42.805,6.029,0.035,-0.017,-0.029,102.0,102.0,101.0,13.4,1505.2,335.6,-0.8,1.8,2471.464,13.28,0.038,115.9
2023-05-19T08:07:03,42.805,6.029,0.05,-0.025,-0.023,103.0,100.0,102.0,13.4,1505.2,331.3,-0.7,1.8,2471.426,13.28,0.055,116.6
2023-05-19T08:10:03,42.805,6.029,0.068,-0.022,0.014,102.0,103.0,102.0,13.4,1505.2,330.8,-0.8,1.8,2471.467,13.28,0.071,107.9
2023-05-19T08:13:03,42.805,6.029,0.044,-0.025,-0.034,102.0,102.0,101.0,13.4,1505.2,327.8,-0.8,1.8,2471.444,13.28,0.05,119.6
2023-05-19T08:16:03,42.805,6.029,0.054,-0.059,-0.03,101.0,102.0,101.0,13.4,1505.2,339.9,-0.8,1.8,2471.444,13.29,0.079,137.5
2023-05-19T08:19:03,42.805,6.029,0.046,-0.021,-0.007,102.0,103.0,101.0,13.4,1505.2,330.8,-0.8,1.8,2471.458,13.29,0.05,114.5
2023-05-19T08:22:03,42.805,6.029,0.024,-0.01,-0.008,104.0,100.0,101.0,13.3,1505.2,332.4,-0.8,1.8,2471.421,13.29,0.026,112.6
2023-05-19T08:25:03,42.805,6.029,0.037,-0.025,-0.031,103.0,101.0,101.0,13.4,1505.2,344.2,-0.8,1.8,2471.425,13.29,0.044,124.0
2023-05-19T08:28:03,42.805,6.029,0.013,-0.016,-0.015,104.0,101.0,101.0,13.3,1505.2,341.5,-0.8,1.8,2471.387,13.29,0.02,140.9
2023-05-19T08:31:03,42.805,6.029,0.04,-0.008,-0.02,102.0,102.0,101.0,13.4,1505.2,324.3,-0.7,1.8,2471.391,13.29,0.04,101.3
2023-05-19T08:34:03,42.805,6.029,0.048,-0.022,-0.022,102.0,102.0,101.0,13.3,1505.2,326.5,-0.7,1.8,2471.38,13.29,0.052,114.6
2023-05-19T08:37:03,42.805,6.029,0.047,-0.018,-0.022,102.0,102.0,102.0,13.4,1505.2,333.4,-0.8,1.8,2471.393,13.29,0.05,111.0
2023-05-19T08:40:03,42.805,6.029,0.039,-0.027,-0.035,103.0,102.0,101.0,13.4,1505.2,327.2,-0.8,1.8,2471.445,13.29,0.047,124.7
2023-05-19T08:43:03,42.805,6.029,0.028,-0.01,-0.032,103.0,103.0,102.0,13.4,1505.2,332.4,-0.8,1.8,2471.402,13.29,0.029,109.6
2023-05-19T08:46:03,42.805,6.029,0.018,0.0,-0.022,102.0,102.0,102.0,13.3,1505.2,339.3,-0.8,1.8,2471.4,13.29,0.018,90.0
2023-05-19T08:49:03,42.805,6.029,0.031,-0.018,-0.033,103.0,102.0,100.0,13.3,1505.2,326.0,-0.8,1.8,2471.39,13.29,0.035,120.1
2023-05-19T08:52:03,42.805,6.029,0.042,-0.007,-0.021,103.0,103.0,102.0,13.4,1505.2,337.2,-0.8,1.8,2471.374,13.29,0.042,99.5
2023-05-19T08:55:03,42.805,6.029,0.036,-0.008,-0.014,103.0,102.0,101.0,13.4,1505.2,327.3,-0.8,1.8,2471.368,13.29,0.036,102.5
2023-05-19T08:58:03,42.805,6.029,0.013,0.008,-0.037,103.0,101.0,101.0,13.4,1505.2,325.2,-0.7,1.8,2471.409,13.29,0.015,58.4
2023-05-19T09:04:03,42.805,6.029,0.046,-0.021,-0.071,101.0,103.0,101.0,13.4,1505.2,318.5,-0.7,1.8,2471.445,13.28,0.05,114.5
2023-05-19T09:07:03,42.805,6.029,0.058,-0.015,-0.005,101.0,102.0,102.0,13.4,1505.2,326.0,-0.8,1.8,2471.457,13.28,0.059,104.5
2023-05-19T09:10:03,42.805,6.029,0.039,-0.034,-0.023,102.0,102.0,100.0,13.3,1505.2,345.1,-0.8,1.8,2471.433,13.28,0.051,131.1
2023-05-19T09:13:03,42.805,6.029,0.033,-0.013,-0.007,102.0,101.0,102.0,13.4,1505.2,318.5,-0.8,1.8,2471.413,13.28,0.035,111.5
2023-05-19T09:16:03,42.805,6.029,0.007,-0.017,-0.057,102.0,101.0,101.0,13.4,1505.2,341.2,-0.8,1.8,2471.392,13.29,0.018,157.6
2023-05-19T09:19:03,42.805,6.029,0.035,-0.001,-0.026,103.0,101.0,101.0,13.3,1505.2,325.7,-0.7,1.8,2471.437,13.29,0.035,91.6
2023-05-19T09:22:03,42.805,6.029,0.031,-0.03,-0.061,101.0,104.0,101.0,13.4,1505.2,347.0,-0.8,1.8,2471.428,13.29,0.043,134.1
2023-05-19T09:25:03,42.805,6.029,0.03,-0.019,-0.021,102.0,103.0,102.0,13.3,1505.2,346.5,-0.8,1.8,2471.352,13.29,0.035,122.3
2023-05-19T09:28:03,42.805,6.029,0.041,-0.019,-0.024,102.0,102.0,101.0,13.3,1505.2,338.9,-0.8,1.8,2471.382,13.29,0.045,114.9
2023-05-19T09:31:03,42.805,6.029,0.047,0.017,-0.01,103.0,102.0,101.0,13.4,1505.2,320.0,-0.8,1.8,2471.408,13.29,0.049,70.1
2023-05-19T09:34:03,42.805,6.029,0.031,-0.012,-0.013,102.0,103.0,101.0,13.4,1505.2,334.4,-0.8,1.8,2471.398,13.29,0.033,111.2
2023-05-19T09:37:03,42.805,6.029,0.043,-0.027,-0.034,101.0,102.0,101.0,13.3,1505.2,327.7,-0.7,1.8,2471.354,13.29,0.05,122.1
2023-05-19T09:40:03,42.805,6.029,0.033,-0.023,-0.021,103.0,102.0,101.0,13.4,1505.2,341.9,-0.7,1.8,2471.362,13.29,0.04,124.9
2023-05-19T09:43:03,42.805,6.029,0.021,-0.003,-0.002,102.0,102.0,101.0,13.4,1505.2,338.3,-0.8,1.8,2471.363,13.29,0.021,98.1
2023-05-19T09:46:03,42.805,6.029,0.03,0.008,-0.023,103.0,102.0,102.0,13.4,1505.2,327.5,-0.7,1.8,2471.365,13.29,0.031,75.1
2023-05-19T09:49:03,42.805,6.029,0.031,-0.016,-0.022,102.0,102.0,101.0,13.4,1505.2,327.4,-0.8,1.8,2471.354,13.29,0.034,117.3
2023-05-19T09:52:03,42.805,6.029,0.038,-0.014,-0.036,103.0,102.0,101.0,13.4,1505.2,327.4,-0.8,1.8,2471.354,13.29,0.04,110.2
2023-05-19T09:55:03,42.805,6.029,0.026,-0.034,-0.043,102.0,102.0,101.0,13.4,1505.2,336.0,-0.8,1.8,2471.31,13.29,0.042,142.6